Location: High Ridge
(41.1643°N, 73.5635°W)
Time: 05:05:05
(UTC+00:00)

Daily predictions for brighter satellites

Satellite Brightness Start Highest point End
(mag) Time Altitude Azimuth Time Altitude Azimuth Time Altitude Azimuth
OAO 2 Rocket 4.1 00:03:40 10° WSW 00:07:50 36° S 00:07:50 36° S
SeaSat 1 2.5 00:11:24 63° NNE 00:11:24 63° NNE 00:15:46 10° NNW
Cosmos 2219 3.9 00:07:27 10° NNW 00:13:03 54° WSW 00:17:55 14° S
YAOGAN 1 4.0 00:11:11 10° SSW 00:15:11 37° W 00:19:12 10° NNW
Cosmos 883 Rocket 4.3 00:12:41 10° S 00:18:52 83° E 00:25:02 10° N
S3M 4.5 00:15:30 10° SSW 00:21:30 58° W 00:27:34 10° N
Cosmos 2082 3.7 00:17:24 10° NNW 00:22:40 72° NNE 00:22:40 72° NNE
CZ-2C R/B 4.4 00:19:09 10° SSW 00:24:38 42° W 00:30:03 10° NNW
SL-4 R/B 4.4 00:23:10 10° NW 00:24:00 14° NNW 00:24:00 14° NNW
Cosmos 968 Rocket 4.1 00:21:50 10° NNW 00:26:55 54° WSW 00:28:17 41° SSW
Cosmos 1346 Rocket 4.4 00:25:37 10° NNW 00:28:23 33° WNW 00:28:23 33° WNW
Cosmos 2369 3.8 00:26:18 10° SSW 00:32:01 74° WNW 00:32:23 71° NNW
Atlas Centaur 2 3.7 00:27:21 10° WSW 00:35:00 38° S 00:35:21 37° S
ARGOS 3.6 00:36:35 54° SW 00:37:21 60° W 00:42:45 10° NNW
NOSS 3-3 (A) 4.3 00:35:06 10° SW 00:40:47 60° NW 00:41:50 52° N
NOSS 3-3 (C) 4.3 00:35:11 10° SW 00:40:55 60° NW 00:41:58 53° N
USA 215 3.8 00:42:31 45° NNE 00:42:31 45° NNE 00:48:00 10° NW
Cosmos 2227 Rocket 3.6 00:44:13 10° NW 00:49:17 35° WSW 00:51:13 27° SW
ATLAS 2AS CENTAUR R/B 3.8 00:49:12 10° NNW 00:54:14 34° N 00:54:14 34° N
Cosmos 2263 Rocket 4.3 00:53:19 10° N 00:54:45 18° N 00:54:45 18° N
Cosmos 1697 Rocket 4.1 01:00:24 10° WSW 01:05:28 34° WNW 01:06:00 34° NW
Lacrosse 5 4.5 01:02:55 10° NNW 01:03:38 12° NNW 01:03:38 12° NNW
H-2A R/B 4.2 01:04:14 10° SW 01:08:27 23° W 01:12:44 10° NW
H-2A R/B (2) 4.2 00:32:03 10° WSW 01:08:30 43° SSW 01:09:35 41° S
CZ-4C R/B 4.4 01:22:16 10° NNW 01:25:16 24° N 01:25:16 24° N
ADEOS Rocket 4.2 08:08:54 10° SE 08:13:48 35° ENE 08:18:46 10° N
DELTA 2 R/B (1) 4.1 08:44:04 50° SE 08:44:04 50° SE 08:48:25 10° ESE
NOSS 3-2 (C) 3.4 08:44:11 65° N 08:44:11 65° N 08:49:45 10° NNE
ISS -0.8 08:46:05 17° ENE 08:46:05 17° ENE 08:47:03 10° ENE
Lacrosse 4 Rocket 2.9 08:57:05 29° NNE 08:57:05 29° NNE 08:59:10 10° NNE
ALOS 4.0 08:51:18 10° NNE 08:55:26 31° E 08:59:34 10° SSE
CENTAUR R/B 2.4 08:57:17 65° NW 08:57:18 65° NW 09:04:12 10° NNE
Cosmos 1484 Rocket 4.4 09:01:12 10° NNE 09:04:43 32° E 09:08:08 10° SSE
CZ-2C R/B 2.3 09:00:36 10° NNE 09:05:24 80° NNW 09:05:24 80° NNW
Cosmos 1626 3.9 09:03:31 10° SSE 09:06:49 32° E 09:10:09 10° NNE
ADEOS 4.3 09:07:16 10° NNE 09:12:23 53° E 09:17:28 10° S
Cosmos 1833 Rocket 2.9 09:08:56 21° S 09:12:45 71° ESE 09:18:23 10° NNE
PAYLOAD A 4.0 09:07:47 10° N 09:12:42 63° WNW 09:12:42 63° WNW
In-Cosmos 22 4.2 09:14:21 53° NW 09:14:21 53° NW 09:19:04 10° N
Nadezhda 4 Rocket 4.2 09:08:48 10° S 09:14:51 70° E 09:20:57 10° NNE
Cosmos 2180 Rocket 4.3 09:08:59 10° N 09:15:15 81° W 09:21:26 10° S
Cosmos 1269 Rocket 4.0 09:17:07 60° WNW 09:17:15 60° WNW 09:22:31 10° NNE
Cosmos 1302 Rocket 4.0 09:13:14 17° NNW 09:17:21 86° ENE 09:22:38 10° SSE
Geosat 4.1 09:16:50 10° SE 09:21:50 75° ENE 09:26:27 12° NNW
Lacrosse 5 rocket 1.2 09:22:55 69° NE 09:22:55 69° NE 09:26:16 10° NE
H-2A R/B 4.3 09:20:06 10° S 09:20:50 14° S 09:20:50 14° S
Cosmos 2369 4.4 09:21:07 10° NNW 09:26:40 53° ENE 09:32:10 10° SE
Meteor 1-31 Rocket 3.8 09:25:03 10° NNE 09:28:52 47° E 09:32:40 10° S
Cosmos 2344 4.1 09:27:00 32° WNW 09:28:53 37° NW 09:36:18 10° NNE
USA 238 DEB 4.4 09:29:27 31° WNW 09:30:29 32° NW 09:36:37 10° NNE
USA 238 4.4 09:29:31 31° WNW 09:30:35 32° NW 09:36:43 10° NNE
Cosmos 2082 Rocket 2.8 09:26:19 10° S 09:31:47 57° ESE 09:37:17 10° NNE
Meteor 1-16 Rocket 4.1 09:27:56 10° NNW 09:33:04 51° W 09:38:12 10° S
NOSS 3-2 (A) 4.5 09:34:08 25° NW 09:34:51 26° NW 09:40:15 10° NNE
SJ-6F 4.3 09:32:04 10° N 09:36:09 71° WNW 09:39:21 16° SSW
CZ-4B R/B 1.4 09:35:27 10° SSE 09:38:55 82° ENE 09:42:23 10° N
Cosmos 1656 3.7 09:36:09 19° NW 09:40:10 56° WSW 09:45:41 10° S
CZ-4B R/B 4.1 09:37:57 10° NNE 09:42:10 72° ESE 09:46:09 10° S
ATLAS 3B R/B 2.6 09:37:00 10° SSW 09:43:34 85° ESE 09:50:14 10° NE
Meteor 2-5 Rocket 3.7 09:38:24 10° S 09:44:04 89° ESE 09:49:54 10° N
deb Chang Zheng 4 3.4 09:40:30 10° NNE 09:44:46 90° WNW 09:49:01 10° SSW
COSMOS 2406 3.5 09:48:09 25° WSW 09:51:05 44° WNW 09:56:30 10° NNE
Cosmos 1892 Rocket 4.0 09:49:39 10° S 09:53:57 64° E 09:58:16 10° NNE
Cosmos 2084 4.4 09:51:29 10° SSW 09:55:37 48° ESE 09:59:51 10° NE
Cosmos 1400 Rocket 3.5 09:52:26 10° N 09:56:19 53° ENE 10:00:07 10° SSE
Cosmos 1992 Rocket 4.1 09:52:47 10° NNW 09:58:01 79° ENE 10:03:13 10° SSE
Cosmos 1697 Rocket 2.6 09:53:14 10° NNW 09:58:53 74° WSW 10:04:30 10° SSE
ADEOS Rocket 3.5 09:54:39 10° SSW 09:59:24 29° W 10:04:11 10° NW
ARGOS Delta rocket 4.1 09:56:46 10° N 10:02:12 89° W 10:07:42 10° SSW
ERS-2 2.8 10:00:45 10° SSW 10:04:02 32° W 10:05:48 21° NW
BREEZE-M DEB (TANK) 2.3 10:04:39 29° WSW 10:05:09 32° SW 10:07:11 10° SSE
Cosmos 44 Rocket 4.0 10:04:23 18° WNW 10:07:36 37° WSW 10:12:21 10° S
Cosmos 1908 4.5 10:08:35 22° WSW 10:08:35 22° WSW 10:10:59 10° SW
SKYMED 2 3.6 10:03:49 10° SSE 10:08:09 81° ENE 10:12:31 10° N
SL-19 R/B 3.5 10:06:06 10° N 10:08:52 52° WNW 10:11:40 10° SSW
SAR-Lupe-4 3.5 10:05:48 10° S 10:09:19 59° WSW 10:12:52 10° NNW
SJ-12 3.8 10:06:56 10° N 10:11:04 81° WNW 10:15:09 10° SSW
FENGYUN 3A 3.9 10:06:38 10° N 10:11:50 48° WNW 10:17:02 10° SW
Cosmos 2026 Rocket 4.1 10:05:54 10° S 10:12:16 90° WSW 10:18:41 10° N
Abrixas rocket 3.3 10:11:30 17° NNW 10:13:05 29° NNE 10:15:38 10° E
Cosmos 1461 3.4 10:10:10 13° SW 10:14:03 48° NW 10:18:37 10° NNE
TELKOM 3 4.1 10:12:57 24° W 10:14:38 51° NNW 10:18:28 10° NE
Cosmos 2195 Rocket 4.4 10:10:40 10° SSW 10:16:53 71° W 10:23:03 10° N
Cosmos 1689 Rocket 1.9 10:14:37 10° S 10:17:32 75° W 10:20:28 10° NNW
SL-14 R/B 3.8 10:13:57 10° SW 10:17:38 37° WNW 10:21:24 10° N
Cosmos 2251 Rocket 3.5 10:12:27 10° SSW 10:17:46 63° WNW 10:23:05 10° NNE
ISS -2.8 10:19:03 20° WNW 10:20:45 32° NNW 10:23:49 10° NE
Cosmos 1980 Rocket 2.2 10:15:13 10° NNW 10:20:50 89° ENE 10:26:27 10° SSE
USA 290 2.6 10:19:54 10° SW 10:22:57 40° WNW 10:26:02 10° N
Cosmos 1315 Rocket 4.4 10:21:49 10° N 10:25:43 40° ENE 10:29:36 10° SSE
Cosmos 614 Rocket 4.1 10:21:40 10° SSW 10:26:50 79° ESE 10:31:58 10° NNE
Cosmos 1300 3.1 10:24:15 10° NNW 10:27:52 41° W 10:31:27 10° SSW
PSLV R/B 4.0 10:27:48 10° S 10:31:56 61° W 10:36:08 10° NNW
Cosmos 2360 4.4 10:26:53 10° NW 10:32:21 49° WSW 10:37:47 10° S
ALOS 3.2 10:28:50 10° NNW 10:32:44 27° WNW 10:36:37 10° SW
Lacrosse 4 Rocket 3.4 10:33:26 10° WNW 10:34:22 11° NW 10:35:25 10° NNW
Cosmos 1726 Rocket 4.1 10:32:58 10° NNW 10:37:07 38° W 10:41:14 10° SSW
Cosmos 1484 Rocket 4.2 10:36:16 10° NNW 10:38:50 17° WNW 10:41:23 10° WSW
Cosmos 1626 3.8 10:40:01 10° WSW 10:42:10 15° WNW 10:44:21 10° NW
CZ-2C R/B 4.3 10:42:15 10° NW 10:42:56 10° WNW 10:43:36 10° WNW
Cosmos 2278 3.9 10:42:07 10° NNW 10:47:36 53° WSW 10:53:03 10° S
Aureole 3 4.0 10:43:38 10° NNW 10:47:40 47° W 10:52:44 10° SSW
H-2A R/B 2.7 10:44:23 10° N 10:48:12 77° WNW 10:52:02 10° SSW
Cosmos 2228 4.3 10:45:40 10° NW 10:48:56 21° W 10:52:13 10° SW
CZ-4B R/B 3.6 10:45:19 10° N 10:48:59 34° WNW 10:52:47 10° SW
CENTAUR R/B 4.1 10:45:04 10° WNW 10:49:34 19° NNW 10:54:34 10° NNE
Cosmos 2098 Rocket 3.9 10:43:18 10° S 10:49:46 86° E 10:54:57 10° N
Cosmos 2322 Rocket 3.7 10:46:15 10° N 10:51:34 38° ENE 10:56:47 10° SE
CZ-3 R/B 3.4 10:49:17 10° WSW 11:04:43 36° SSW 11:10:07 10° SE
